Wind_Speed
91 87 83 82 83 84 86 88 87 86 86 86 83 80 79 78 75 73 72 70 67 65 63 64 66 67 64 62 62 60 57 55 52 51 53 54 50 47 46 45 43 42 41 40 39 40 41 41 40 38 37 36 36 36 34 32 30 30 30 29 28 28 28 28 30 31 32 33 34 35 36 37 37 38 39 39 40 41 43 45 46 47 47 48 49 50
92 86 82 83 85 87 88 90 90 88 87 86 85 82 80 80 78 77 76 73 70 67 65 65 66 67 65 64 63 61 59 57 55 53 53 54 52 50 48 48 47 45 41 40 40 41 42 43 42 40 39 38 38 37 35 34 33 32 32 30 30 30 30 30 31 33 34 35 36 37 38 39 40 41 41 42 43 44 46 47 48 49 49 50 51 52
91 86 83 86 88 88 88 89 90 89 89 87 85 83 80 79 80 79 78 76 73 69 68 67 66 66 66 64 62 60 59 58 56 54 53 53 53 52 50 49 49 48 44 41 41 42 44 44 42 41 40 40 40 38 38 37 36 34 33 32 32 32 31 32 33 34 35 37 38 39 41 42 43 43 44 44 44 46 48 49 50 50 51 51 52 53
91 87 85 88 90 89 88 89 90 90 90 87 84 82 79 78 80 80 79 77 75 72 71 69 67 67 66 63 60 59 59 58 56 55 53 53 54 55 53 50 50 51 48 43 42 44 45 45 43 42 41 41 41 41 40 40 38 36 35 35 34 33 33 33 34 35 37 39 40 42 43 45 46 46 46 46 46 48 50 51 52 52 53 52 52 53
94 90 89 90 92 92 90 90 90 90 89 86 84 82 80 79 79 80 81 79 77 75 73 72 69 66 65 63 61 60 60 58 57 55 54 55 56 56 54 53 52 52 51 45 44 46 48 48 46 44 42 42 43 44 42 42 40 38 37 37 36 35 34 35 35 37 39 40 42 44 45 47 48 48 48 47 47 50 52 53 54 54 55 54 53 53
98 94 92 92 93 93 92 91 90 89 88 86 84 82 81 81 80 80 82 81 79 77 75 75 71 65 64 64 62 62 61 60 58 55 55 56 57 56 55 56 54 52 50 46 45 48 50 50 48 46 45 43 45 45 44 44 42 41 40 39 38 37 37 37 38 39 40 42 44 45 47 49 50 50 50 48 49 53 55 55 56 56 56 55 54 55
100 96 95 94 92 93 92 91 89 89 89 87 85 84 83 83 82 82 83 82 81 78 78 78 73 67 66 64 62 63 62 62 60 56 55 56 57 57 57 59 58 53 48 44 45 49 51 51 50 49 46 45 46 46 45 45 45 44 43 40 40 40 41 41 41 41 42 43 45 46 48 50 51 51 50 49 51 56 57 57 58 58 57 56 56 58
101 97 96 95 93 92 90 89 89 90 91 89 87 88 87 85 85 85 84 83 82 81 81 80 75 71 68 64 63 63 62 62 60 56 56 57 58 59 60 60 60 57 50 45 46 49 51 52 52 50 47 46 47 47 47 48 48 47 45 43 42 44 44 44 43 44 44 45 46 47 49 50 51 51 50 50 54 58 58 59 60 60 60 59 59 61
103 99 97 96 94 90 87 88 91 93 92 91 91 92 90 88 87 87 87 85 84 84 82 79 77 73 68 65 65 64 61 61 60 58 59 60 59 60 61 61 60 59 55 51 51 52 53 54 53 50 48 47 48 49 49 50 50 49 48 47 46 47 47 46 46 47 47 48 48 48 49 51 51 51 52 54 57 59 59 60 62 62 62 62 63 64
105 104 101 99 96 90 86 89 93 94 92 93 95 95 93 91 89 89 89 87 87 85 80 77 77 73 68 67 67 63 60 60 61 61 62 63 62 60 61 60 59 58 57 56 56 57 57 57 54 52 50 49 49 50 51 52 52 52 51 50 50 51 50 50 51 51 50 51 51 50 50 51 52 53 55 58 59 60 61 63 63 63 64 65 67 69
106 106 103 100 96 90 88 90 92 93 92 94 97 97 94 93 91 91 90 90 90 84 77 77 78 76 71 69 68 64 60 62 64 65 64 65 66 64 62 62 61 60 59 58 58 59 59 58 57 55 53 52 50 51 53 54 55 55 54 54 55 55 54 54 54 53 53 53 53 52 52 52 54 56 58 60 61 62 63 64 65 65 67 70 72 73
104 103 101 98 94 91 91 91 91 92 92 94 97 98 97 95 94 94 93 93 91 82 76 78 81 80 73 69 70 67 63 64 65 65 66 66 67 67 67 66 65 64 62 62 61 61 60 60 60 58 57 54 52 53 55 57 58 58 57 58 58 58 57 57 56 55 55 55 55 55 55 55 56 58 60 62 63 64 65 65 67 69 71 74 75 75
103 102 100 97 95 93 91 90 90 91 91 93 96 98 99 98 97 96 95 95 91 82 78 80 84 82 74 69 72 72 69 68 68 68 69 69 68 68 68 69 68 67 65 65 65 65 63 62 61 60 59 57 55 55 57 58 59 59 59 59 60 60 59 58 57 57 57 57 58 58 57 58 59 61 63 64 65 66 67 68 70 72 74 76 77 77
103 101 100 97 95 93 90 88 87 86 87 91 95 98 100 100 99 98 96 95 91 84 81 83 86 83 73 71 74 75 74 72 71 71 71 72 71 70 69 69 69 68 67 67 68 68 65 62 61 60 59 57 56 57 59 60 60 60 60 61 62 62 61 61 61 60 60 60 60 60 60 61 62 64 65 67 68 68 69 70 72 74 76 77 78 79
104 102 100 98 96 95 93 90 88 87 87 91 96 100 102 101 99 98 98 96 93 89 87 86 86 81 74 72 74 77 78 75 74 73 73 73 74 73 71 70 70 69 69 69 69 69 68 64 61 60 59 58 57 58 60 62 62 63 64 65 65 64 63 63 64 63 63 63 63 63 63 64 66 68 69 70 70 70 71 72 74 76 77 79 80 81
104 103 101 100 99 99 97 95 92 90 89 91 97 102 102 101 100 100 101 99 96 94 92 89 85 79 75 75 75 77 79 78 76 76 75 75 75 74 73 73 73 72 71 71 71 71 70 67 64 61 60 60 59 59 60 62 63 64 66 67 67 66 65 65 65 65 65 65 65 66 67 68 69 71 72 73 72 73 73 74 76 78 79 81 82 84
104 103 102 102 101 100 100 98 95 92 91 93 97 99 100 101 103 104 103 102 100 97 93 89 84 78 76 76 76 78 80 80 79 78 77 77 77 76 75 75 75 74 74 73 73 73 71 69 66 63 61 61 61 61 62 63 64 66 67 68 68 68 67 67 67 67 67 67 67 68 70 71 72 73 74 75 75 75 76 77 78 80 81 83 84 86
107 106 105 105 105 104 103 102 99 95 93 93 95 96 100 104 107 106 105 104 102 99 93 87 84 80 78 76 75 78 80 82 82 81 79 78 77 77 77 77 77 76 75 75 75 74 73 71 69 66 64 62 61 61 63 66 67 68 69 69 69 70 70 69 68 68 69 69 71 72 73 74 75 76 77 77 78 78 79 79 81 82 84 85 86 87
109 109 109 109 108 107 107 106 104 99 94 91 91 93 100 105 106 106 106 106 104 101 94 88 85 83 80 78 75 76 80 82 83 83 82 80 79 79 80 80 78 77 77 76 76 75 74 73 71 69 67 66 64 63 64 67 69 69 69 70 71 72 71 70 70 71 72 74 75 75 76 77 78 79 79 80 81 81 81 82 84 86 87 88 88 89
111 110 110 110 110 110 109 107 104 100 95 92 90 92 97 102 104 106 107 107 106 104 99 93 90 85 81 81 79 78 79 83 84 85 84 84 83 82 82 81 80 78 78 78 77 77 76 75 73 71 70 69 68 67 65 67 69 70 72 73 73 72 71 72 73 75 76 76 77 78 79 80 80 81 83 83 83 84 84 86 88 89 90 89 90 91
112 112 110 110 110 110 109 107 105 101 97 94 92 92 95 100 104 106 108 108 107 106 102 99 95 89 84 84 84 81 80 83 85 86 87 87 86 85 85 84 82 81 80 79 78 78 77 77 76 75 75 74 74 73 72 71 72 73 74 74 73 72 73 75 76 77 78 78 79 80 81 82 83 84 85 85 85 86 87 89 91 91 91 91 92 93
113 113 112 111 110 109 109 109 108 106 102 98 96 95 96 100 104 108 109 108 108 107 105 102 99 93 87 85 85 84 82 82 86 88 89 90 89 88 87 87 86 84 84 83 82 80 80 79 79 79 80 80 80 79 77 76 75 76 77 77 76 76 76 77 78 79 80 81 82 83 84 84 85 86 86 86 87 89 91 92 93 93 93 94 95 95
114 115 114 113 111 111 112 112 110 109 106 103 99 96 97 100 104 108 108 108 108 108 106 104 101 94 89 86 85 85 85 84 87 89 89 90 90 90 89 88 88 88 88 87 85 84 83 83 83 83 82 82 80 79 77 76 77 78 78 78 78 78 79 80 81 82 83 84 85 85 86 87 88 88 89 89 91 92 94 94 94 94 95 96 97 97
117 117 117 116 114 113 113 113 112 111 109 105 100 97 98 100 103 106 108 108 109 108 106 105 101 94 90 89 86 86 87 86 88 90 90 91 91 91 91 90 90 90 90 89 88 87 86 85 85 85 84 83 82 80 79 79 80 80 80 80 80 81 82 83 84 86 86 87 87 88 89 89 90 91 92 93 94 95 95 95 96 97 97 98 98 99
117 117 117 117 116 115 114 113 111 110 108 106 102 99 99 100 103 106 108 109 109 107 105 104 100 93 90 90 88 88 88 86 89 92 92 93 93 93 92 91 90 90 90 90 89 88 86 85 85 85 85 85 84 83 83 83 83 83 83 84 84 85 86 87 88 89 89 90 90 90 91 91 92 94 95 96 97 97 97 98 99 99 99 99 100 101
117 118 119 118 118 116 114 112 110 109 109 108 106 103 101 101 103 106 109 110 109 107 106 103 98 93 91 90 90 90 87 86 90 94 95 95 95 93 92 92 91 90 89 88 87 86 85 85 85 85 86 86 85 85 86 86 86 86 87 87 88 89 90 91 91 92 92 92 92 93 93 94 96 97 98 98 99 100 100 101 101 101 102 103 103 104
119 121 120 120 118 117 116 113 112 111 112 111 110 108 105 104 105 107 109 110 109 108 108 104 99 95 92 91 92 91 89 89 92 96 97 97 96 94 93 92 91 90 88 86 85 85 86 86 86 86 87 87 87 87 87 88 88 89 89 90 91 92 92 93 93 94 94 94 95 96 97 98 99 100 100 101 102 103 103 104 104 105 105 106 107 108
118 120 119 118 117 116 116 115 113 112 112 111 111 110 109 108 109 110 110 109 110 112 110 106 102 98 94 93 94 94 94 94 94 96 98 97 96 95 94 93 92 91 89 88 87 87 87 87 87 87 88 88 88 88 89 90 90 91 92 92 93 94 94 95 95 96 96 97 98 99 100 101 102 102 104 105 105 105 106 106 107 107 108 109 110 111
114 116 116 117 117 117 117 116 114 113 112 112 111 110 110 109 110 110 109 110 112 113 110 107 105 101 98 97 97 97 98 99 98 97 98 97 96 96 95 95 94 93 91 90 90 89 88 88 89 89 89 90 90 90 91 92 93 94 94 95 95 96 97 97 98 98 99 100 101 102 102 103 105 106 107 107 107 108 108 109 109 110 110 111 112 113
110 111 113 115 116 117 117 116 115 115 114 112 112 111 110 110 109 108 107 108 111 112 110 109 107 104 102 102 100 99 100 101 100 99 99 99 98 98 97 96 95 94 93 92 92 91 90 90 91 91 92 92 93 93 94 95 96 96 97 97 98 99 99 100 100 101 101 102 103 104 105 107 108 108 108 108 109 110 110 111 111 112 113 114 115 116
107 108 110 113 115 116 117 117 116 116 115 114 112 111 110 109 108 106 105 108 111 110 109 109 108 104 103 104 103 102 102 102 101 101 102 102 101 101 101 99 97 96 95 94 94 93 92 93 93 94 95 96 97 97 97 98 99 99 99 100 100 101 101 101 102 103 104 105 106 107 108 109 109 109 110 110 111 112 112 113 113 114 115 116 117 119
105 106 107 109 112 113 116 117 117 118 118 117 113 110 107 106 106 106 107 108 110 110 111 111 109 104 103 105 105 104 104 104 103 103 103 104 105 106 105 103 101 99 97 96 96 95 95 96 97 97 98 99 100 100 100 100 100 100 101 101 101 102 102 103 104 105 105 106 107 108 109 110 110 111 111 112 113 113 114 115 116 116 117 119 120 122
101 104 105 107 109 111 113 115 118 120 120 118 112 108 106 106 107 107 107 108 110 112 113 112 110 106 105 106 105 105 105 106 106 106 106 107 108 108 107 105 103 101 101 100 99 99 99 99 100 100 100 100 101 101 101 101 101 101 101 101 102 102 103 104 104 105 106 107 108 109 110 111 112 113 113 114 115 116 117 117 118 119 120 122 123 124
96 99 102 105 108 109 110 113 117 120 119 114 109 108 108 108 106 106 107 108 111 113 113 112 110 109 109 107 106 105 106 107 108 109 111 111 111 110 108 106 105 103 103 102 102 102 102 103 103 102 101 101 102 102 102 102 102 102 102 102 102 103 103 104 105 106 107 108 109 111 112 113 114 115 115 117 118 119 119 120 121 122 123 124 125 126
96 98 101 105 108 110 111 113 116 117 115 110 108 110 110 107 105 106 108 109 111 112 112 110 109 109 110 109 108 107 107 107 108 110 112 113 113 113 111 108 106 105 105 105 105 105 106 106 105 104 103 103 103 103 104 104 104 104 104 103 104 104 105 106 107 108 109 110 111 113 114 115 116 117 118 119 120 121 122 123 124 125 126 127 128 128
94 96 99 103 107 110 112 114 115 114 113 111 111 111 110 107 106 107 108 109 111 112 112 109 107 107 109 110 111 110 109 110 109 109 110 112 113 113 111 109 108 108 108 109 109 108 108 107 107 106 106 105 105 106 106 107 107 107 106 107 107 107 108 109 109 110 111 113 114 115 117 118 119 120 121 122 122 123 124 125 126 127 128 129 130 130
91 93 96 99 102 106 108 110 112 113 112 111 110 109 108 108 109 109 110 110 111 113 111 108 106 105 107 109 112 114 114 113 111 109 109 110 112 112 111 110 111 112 112 112 111 110 109 109 109 109 109 108 108 109 110 110 110 110 110 110 110 111 111 112 112 113 115 116 117 118 119 120 121 121 122 123 124 125 126 127 128 129 130 131 132 132
88 89 91 95 98 101 104 106 108 109 109 107 105 105 106 109 112 113 111 109 109 110 109 106 104 105 106 108 112 115 116 115 111 108 109 113 114 114 113 113 114 114 114 113 111 111 111 111 112 112 112 112 113 113 113 113 113 112 113 113 114 114 114 115 116 117 118 119 120 121 121 122 122 123 124 125 126 127 128 129 130 131 132 133 133 133
85 86 88 92 95 97 100 102 104 104 103 101 101 103 106 109 113 116 113 107 106 110 108 105 104 105 106 107 110 113 115 113 108 107 111 116 118 116 115 115 115 115 114 114 114 114 114 115 115 116 116 116 116 116 116 115 115 115 115 116 116 117 117 118 119 120 121 121 122 122 123 124 124 125 126 127 128 129 130 131 132 133 133 134 134 134
82 84 86 89 90 90 93 97 99 99 99 99 100 102 106 109 113 116 112 106 106 111 112 109 106 107 108 108 108 109 109 108 107 109 114 118 118 116 114 114 114 114 115 116 116 116 117 117 118 118 118 119 118 118 117 117 117 116 117 117 118 118 119 120 121 121 122 123 123 124 125 126 127 127 128 129 130 131 132 133 134 134 134 134 134 135
80 82 84 86 86 86 88 92 94 94 94 95 98 99 104 109 112 111 108 106 108 114 117 116 111 107 107 107 107 105 105 104 105 108 113 116 116 116 115 114 114 115 115 116 116 117 117 118 118 119 119 120 119 119 119 119 119 118 118 119 119 120 121 122 122 123 124 124 125 126 127 128 129 130 130 131 132 133 133 134 134 134 134 134 134 135
78 79 81 82 82 83 85 87 90 90 90 93 96 97 100 105 107 105 104 107 112 117 121 121 115 109 106 105 103 103 102 102 102 103 105 108 111 114 115 115 115 114 115 115 116 116 117 117 118 119 119 120 120 120 120 120 120 121 121 121 122 123 123 124 124 125 126 126 127 128 129 130 131 131 132 133 133 133 133 133 133 133 133 134 134 134
72 75 77 78 79 80 83 86 86 85 85 89 94 94 95 98 104 107 108 110 113 117 120 120 116 112 109 106 104 103 102 101 101 100 100 100 103 106 109 111 112 113 113 113 114 115 116 117 118 119 119 120 121 121 122 122 122 123 123 123 124 125 125 126 126 127 128 128 129 130 130 131 132 132 133 133 133 132 132 132 132 132 133 133 133 134
70 71 72 73 75 77 79 81 81 79 80 86 92 94 96 98 103 109 111 111 111 113 115 117 116 114 112 109 107 105 104 103 102 101 99 98 98 100 102 105 107 109 109 110 111 112 113 115 116 117 118 119 120 121 122 122 123 123 124 125 125 126 126 127 128 128 129 129 130 130 131 131 131 131 131 131 131 131 131 131 131 131 132 132 133 134
70 70 70 71 72 74 75 76 77 78 81 85 90 95 98 100 101 104 107 109 110 110 111 113 114 114 113 112 111 109 107 106 105 104 102 100 98 98 98 100 102 104 106 107 107 109 110 112 114 115 116 117 118 119 120 121 122 123 123 124 125 125 126 127 127 128 128 128 129 129 129 129 129 129 129 129 129 129 129 130 130 131 131 132 133 133
70 71 72 73 74 76 75 74 75 77 79 82 86 90 95 97 98 100 102 105 107 108 109 109 111 112 113 113 113 112 111 109 108 106 105 104 102 101 100 99 100 101 102 104 105 106 107 108 110 112 113 115 116 117 118 119 120 121 122 123 123 124 125 125 125 125 126 126 126 126 126 126 126 126 126 127 127 128 128 129 130 130 131 132 132 133
71 72 73 74 76 77 75 74 74 76 78 80 83 86 91 94 95 96 97 99 103 105 106 107 108 110 111 112 113 113 112 111 110 109 108 107 106 105 105 104 104 104 104 105 105 106 106 106 107 108 110 111 112 114 114 115 116 117 118 119 120 121 121 122 122 122 122 122 123 123 123 124 124 125 125 126 127 127 128 129 130 130 131 132 133 133
72 73 75 76 76 75 73 73 74 76 78 80 81 84 87 91 94 96 96 97 99 102 105 107 108 109 110 110 111 111 112 112 112 111 111 110 109 108 108 108 108 108 108 109 109 109 109 109 109 109 110 110 111 112 113 114 114 115 116 117 118 119 119 120 120 121 121 121 122 122 123 123 124 125 125 126 127 128 129 130 131 131 132 133 134 135
72 74 76 76 77 76 74 73 74 76 78 79 80 82 85 88 93 96 98 98 98 100 103 105 107 108 109 109 109 109 110 111 112 113 113 113 113 113 112 111 111 111 111 111 111 112 112 112 112 112 113 113 113 114 115 115 116 117 118 118 119 119 120 120 120 120 121 121 122 122 123 124 125 126 127 128 129 130 130 131 132 133 134 135 136 137
70 72 74 76 77 75 73 73 76 78 80 81 82 85 87 89 92 95 97 98 98 98 99 100 102 105 107 108 110 110 110 110 111 112 113 114 114 114 114 114 114 114 114 114 114 114 114 114 114 114 114 115 115 115 116 117 117 118 119 119 120 120 120 120 121 121 121 122 123 124 125 126 127 128 129 130 131 132 133 134 135 136 136 137 138 138
70 71 74 76 76 74 75 77 80 82 84 85 86 87 88 89 90 91 94 96 96 95 95 96 98 101 103 106 108 110 110 111 111 111 111 112 113 114 115 115 115 115 115 116 116 116 116 117 117 117 117 117 117 117 118 118 119 119 119 120 120 120 121 122 122 123 124 125 125 126 127 128 129 130 131 132 133 134 135 136 137 138 138 138 138 138
Wind_Direction
220 220 220 218 217 218 221 223 224 225 228 231 231 230 231 232 230 229 229 230 230 231 232 232 233 235 236 235 236 236 236 235 235 236 238 239 237 237 240 241 240 241 245 249 253 258 261 263 265 268 271 273 275 277 277 276 275 277 280 285 290 292 293 295 296 296 298 297 297 300 303 306 309 311 312 313 315 317 318 319 319 319 319 319 319 319
219 219 219 218 218 218 220 222 223 224 226 229 231 230 231 233 233 231 231 231 231 231 231 232 233 235 236 236 237 239 239 238 237 236 237 239 239 238 241 245 243 242 243 246 252 257 261 263 265 267 270 272 273 274 273 272 272 273 277 283 285 288 292 293 294 296 296 295 295 297 300 303 305 307 309 310 312 315 316 317 318 318 318 318 318 317
218 218 219 219 219 218 219 221 222 225 227 228 230 231 231 233 234 234 233 232 231 230 230 231 233 235 236 236 237 238 239 239 239 240 240 241 241 240 241 245 245 243 242 245 252 259 261 262 265 267 268 271 273 272 270 269 271 272 275 279 281 285 290 292 293 294 294 293 294 296 298 300 302 304 306 308 310 312 314 315 316 316 316 317 316 315
217 217 218 219 219 218 217 219 221 224 227 228 230 232 232 232 233 234 234 233 231 230 230 231 231 233 236 237 238 238 238 238 239 242 243 243 242 241 241 243 245 242 241 245 253 257 258 260 263 265 268 271 272 271 268 267 270 271 274 276 279 283 287 290 292 291 291 292 294 296 297 299 300 302 303 306 307 310 312 314 314 314 314 314 314 313
217 216 217 219 219 218 218 218 220 223 226 227 228 230 231 231 231 233 233 233 231 230 230 230 230 231 234 236 236 237 237 239 240 242 243 243 243 243 242 243 245 243 242 245 251 254 255 257 260 263 268 271 270 269 268 267 270 271 271 275 278 281 285 287 289 289 290 292 294 296 297 298 299 300 301 303 305 308 311 312 312 312 313 312 311 310
216 216 217 219 220 219 219 218 220 222 224 225 226 228 229 230 230 230 232 232 232 231 231 232 231 230 233 234 234 236 238 239 241 242 243 242 243 244 243 243 245 245 244 245 248 250 252 256 260 264 268 270 269 270 270 268 269 268 268 273 277 280 282 283 285 287 289 291 293 295 297 297 297 298 299 300 302 308 310 311 311 311 311 310 308 307
216 216 218 219 220 220 220 219 219 221 222 223 224 225 226 228 229 228 230 231 232 232 232 233 233 230 231 233 234 236 239 240 242 242 242 242 243 244 244 244 244 244 244 245 247 249 251 257 262 265 267 268 268 270 269 266 267 267 267 271 276 279 281 282 284 286 288 289 292 295 297 297 297 296 297 297 301 307 309 308 309 308 308 306 305 304
215 216 218 219 220 220 220 219 219 219 221 222 223 224 225 225 228 228 229 229 231 231 232 234 235 232 232 233 234 237 239 242 243 242 241 242 242 243 244 244 244 244 242 242 245 248 252 257 261 263 264 265 267 269 267 264 266 267 266 270 274 277 279 281 283 286 287 288 291 294 296 297 296 296 295 297 301 304 305 306 306 306 305 304 303 303
215 216 217 218 219 219 219 219 219 218 218 219 221 223 224 224 226 228 229 229 230 231 232 234 236 236 234 235 236 237 239 241 243 241 240 241 241 242 243 244 245 246 246 246 246 247 251 254 257 260 261 262 264 266 264 263 267 268 266 268 273 276 277 279 282 285 286 287 290 293 295 296 295 295 295 296 299 301 301 302 303 303 303 302 302 302
216 216 217 218 219 218 218 220 220 219 218 218 220 222 223 224 225 228 230 230 230 231 232 234 237 237 235 235 237 237 238 240 240 239 238 239 240 241 243 245 246 249 251 252 252 251 252 254 255 257 258 259 261 263 263 263 266 268 268 269 272 274 275 278 282 285 285 286 288 291 293 293 293 294 295 296 297 298 300 301 302 302 302 302 302 303
217 217 218 219 220 219 220 221 222 220 219 219 221 222 223 224 225 227 229 231 231 231 231 233 237 237 235 236 239 238 237 238 238 239 238 239 241 242 244 247 248 251 252 252 253 254 255 255 255 256 257 258 260 261 262 263 265 267 269 271 273 274 275 278 282 283 284 285 287 289 290 291 292 294 295 296 297 299 300 301 301 301 301 302 303 303
218 218 219 220 221 221 222 223 224 223 221 221 223 224 224 225 226 228 229 232 234 232 231 233 237 239 237 237 240 240 238 238 239 240 241 241 242 244 246 248 249 251 251 252 253 254 255 257 257 256 258 259 260 261 261 263 265 267 269 271 273 274 275 278 281 282 282 283 285 286 288 289 292 294 295 297 298 299 300 300 299 300 301 302 303 302
219 219 219 220 221 221 222 224 225 225 223 223 224 225 225 226 227 229 231 234 236 233 230 233 238 240 237 236 239 241 239 239 239 241 243 243 243 244 246 248 249 249 250 251 252 254 255 257 258 257 258 259 260 260 261 262 264 267 268 270 272 273 275 278 280 281 281 282 283 284 286 288 290 293 295 297 298 299 299 299 299 300 300 301 302 302
220 220 220 220 221 222 222 223 225 225 225 224 225 225 225 225 227 230 232 234 235 233 231 233 236 238 237 235 237 240 240 239 239 241 243 245 245 245 246 247 248 248 248 250 252 253 254 256 257 257 257 258 258 258 259 261 262 265 267 269 272 273 275 278 280 280 280 281 282 283 285 287 289 291 294 296 298 298 299 299 299 300 300 300 301 301
220 220 220 221 221 222 223 223 223 224 224 224 225 225 225 225 225 228 230 231 232 232 231 232 235 236 236 235 236 239 241 240 240 241 242 244 244 244 245 246 247 248 248 249 251 252 253 254 256 257 258 258 258 259 259 260 262 264 267 269 270 272 275 278 280 280 280 281 282 282 284 286 287 290 293 296 297 298 298 299 299 299 299 300 300 300
222 222 221 221 221 222 223 223 223 223 224 225 225 226 226 226 225 226 228 229 229 230 230 232 234 235 234 234 235 237 240 241 240 241 242 243 244 244 244 244 246 247 248 248 250 252 253 253 255 257 259 260 261 262 263 263 264 266 267 268 269 271 275 278 278 279 279 280 281 282 283 285 287 289 292 295 296 297 297 298 298 298 298 299 299 299
224 223 223 223 223 223 224 224 224 224 225 226 227 227 227 227 226 226 227 228 229 230 231 232 234 234 233 234 234 235 238 240 241 241 241 242 243 244 244 244 244 246 247 248 249 251 253 254 255 257 258 260 262 264 266 267 266 267 267 267 268 271 275 276 277 277 278 279 280 281 283 284 287 289 292 294 295 296 296 297 297 297 297 298 298 298
225 224 224 224 224 223 224 225 224 224 225 227 228 228 228 229 228 227 227 228 230 230 230 231 232 234 234 235 235 235 237 240 242 243 243 242 243 244 244 244 244 245 246 248 249 250 252 254 255 256 257 258 260 263 265 265 264 264 264 265 268 272 275 275 275 276 276 277 279 281 282 284 287 289 291 293 294 295 296 296 296 296 296 296 296 297
226 225 224 224 224 224 224 225 224 224 225 227 228 228 229 230 230 230 229 229 230 231 230 229 230 232 235 236 236 236 238 240 243 245 245 244 244 243 244 244 244 245 246 247 249 250 252 254 256 257 257 257 258 261 263 262 261 262 263 265 270 273 274 274 273 274 275 277 279 280 282 284 287 289 291 292 293 294 295 295 295 295 295 296 296 297
228 227 226 225 225 225 225 226 226 226 227 228 228 229 230 231 232 232 231 231 231 231 230 229 229 230 233 236 236 237 239 240 243 245 246 246 245 244 244 245 245 245 246 247 249 250 252 253 255 257 257 257 258 259 260 260 259 261 264 267 271 272 272 272 272 274 276 277 279 281 283 285 287 289 290 292 293 293 294 294 294 295 295 295 296 297
229 229 228 227 227 227 227 227 227 227 228 228 229 230 230 231 232 233 233 233 233 232 231 231 230 230 231 234 236 237 238 241 242 244 245 246 246 246 245 246 246 247 247 248 249 251 252 254 255 256 257 258 260 261 261 260 260 261 264 267 269 269 270 271 273 275 276 278 279 281 283 285 287 289 290 291 292 293 293 294 294 295 295 295 296 297
230 230 229 229 228 228 228 228 228 228 228 229 229 230 231 231 232 233 234 234 234 234 233 232 231 230 229 231 235 237 238 240 242 243 245 246 247 247 246 246 247 248 248 249 249 251 253 255 256 258 259 260 262 263 263 261 260 261 264 266 267 268 269 271 273 275 276 278 280 282 284 286 287 289 290 290 291 292 293 294 294 294 294 295 296 297
231 231 230 229 229 228 228 228 228 228 228 229 230 231 232 233 233 234 235 235 235 235 235 233 231 229 228 229 232 236 237 239 241 243 244 246 247 248 248 247 247 248 249 251 252 253 254 256 258 260 261 262 262 262 261 259 259 260 262 265 266 267 269 271 273 275 276 278 280 282 284 286 287 288 288 289 290 291 292 293 294 294 294 295 295 296
231 231 230 229 229 228 228 228 229 229 229 230 230 231 232 234 234 235 235 235 235 235 236 235 233 230 228 229 231 234 236 238 240 242 244 246 247 248 249 249 249 249 250 252 253 255 256 257 259 260 262 262 262 261 260 259 260 261 262 264 266 268 270 271 273 275 276 278 280 282 283 285 286 286 287 288 289 291 292 292 293 294 294 295 295 296
232 231 231 230 229 229 229 228 229 230 231 231 232 233 233 234 234 235 235 235 236 236 236 237 236 231 229 229 230 233 235 238 240 242 243 245 247 248 249 250 250 250 251 252 254 255 257 259 260 261 262 262 262 262 262 262 262 263 265 266 267 269 270 272 273 274 276 278 279 281 283 283 284 285 286 287 288 290 291 291 292 293 294 294 295 296
232 231 230 230 229 229 229 229 229 230 231 231 231 232 233 233 234 235 235 236 237 237 237 237 237 233 230 230 231 232 234 237 240 242 243 244 245 247 248 250 251 251 252 253 254 256 258 260 262 263 263 263 262 263 263 264 264 265 266 267 268 269 270 271 272 274 275 277 279 280 281 282 283 284 285 286 288 289 290 290 291 292 293 294 295 296
232 231 230 230 229 229 229 229 229 229 230 230 231 231 232 232 233 234 235 236 238 239 238 238 237 235 232 231 232 233 234 235 238 241 242 243 244 246 247 249 250 251 252 253 254 257 258 260 262 263 263 263 263 263 264 264 265 265 266 267 267 268 270 271 272 274 275 277 278 279 280 281 283 284 285 286 287 288 289 290 291 291 292 293 295 295
232 231 230 230 230 229 229 229 229 230 230 231 231 232 233 233 234 234 234 235 237 238 239 237 236 234 234 233 233 233 234 235 236 239 242 243 243 245 246 248 249 250 251 253 255 256 258 260 262 262 263 263 263 263 264 264 264 265 266 266 267 269 270 271 273 274 276 277 278 279 280 281 282 283 284 285 286 288 289 290 290 291 292 293 294 295
233 232 231 231 230 230 229 229 230 230 230 231 231 232 233 234 235 236 237 237 238 239 240 238 236 235 234 234 233 233 234 236 236 238 241 243 244 244 245 246 248 249 251 253 255 256 258 260 260 261 261 262 262 263 263 264 265 265 266 267 268 270 271 272 274 275 276 277 278 279 280 280 282 283 284 285 286 287 289 290 291 291 292 292 293 294
235 233 232 231 230 230 230 229 230 230 231 231 231 232 233 234 235 237 237 238 240 241 241 240 239 238 237 236 235 234 235 236 237 239 241 242 244 244 244 245 246 248 250 252 254 255 257 258 259 259 260 261 261 262 263 264 265 266 267 269 270 271 272 274 275 276 276 277 278 279 280 281 282 283 284 284 285 287 288 289 290 291 291 291 292 293
235 234 233 232 231 230 230 229 230 230 231 231 231 232 233 235 236 236 236 237 238 239 240 241 241 240 238 237 237 236 237 238 239 240 241 242 244 245 245 245 246 247 249 251 252 254 255 256 257 258 259 260 261 262 263 264 266 267 268 270 271 272 273 274 275 276 276 277 278 279 280 281 282 283 283 284 285 287 288 288 289 290 290 291 292 292
237 235 233 232 231 231 230 230 230 230 231 231 231 231 233 234 235 236 236 236 237 237 238 240 241 240 238 237 237 237 238 239 240 241 242 243 244 245 246 247 248 248 249 250 251 252 253 254 255 257 258 259 261 262 263 265 266 268 269 270 271 273 273 274 275 276 276 277 278 279 280 281 282 282 283 284 285 286 286 287 288 289 289 290 291 292
237 235 234 232 231 230 229 229 229 229 230 230 230 231 232 233 234 234 234 235 236 237 238 240 241 239 237 237 237 238 238 239 240 241 242 243 244 245 246 247 249 249 249 249 250 251 252 253 255 256 258 260 261 263 264 266 267 268 269 270 271 272 273 274 274 275 276 277 278 279 280 281 281 282 283 283 284 285 285 286 287 288 288 289 290 291
234 234 233 232 231 229 228 228 228 228 228 228 228 229 230 231 232 232 233 233 234 235 237 238 239 239 238 238 238 239 239 239 240 241 242 242 244 245 246 247 248 249 249 250 251 252 253 254 255 257 258 260 261 263 264 265 267 268 269 270 271 272 273 274 274 275 276 277 278 279 279 280 280 281 281 282 283 284 285 285 286 287 288 289 290 291
231 232 231 231 230 229 228 228 228 228 227 227 227 229 230 230 231 231 232 232 233 235 236 237 239 240 240 239 239 239 239 240 241 242 243 244 244 245 246 247 248 249 250 251 252 253 254 255 256 258 259 260 261 262 264 264 265 266 268 269 270 271 272 272 273 274 275 276 276 277 277 278 278 279 280 281 282 283 284 285 286 287 288 289 290 291
232 232 232 231 231 230 230 229 229 229 229 228 228 230 231 231 231 232 232 232 233 234 234 236 238 240 241 241 240 239 239 240 241 242 244 246 246 247 247 248 249 250 251 252 253 254 255 256 258 259 260 261 262 263 264 264 265 266 267 267 268 269 269 270 271 272 273 274 274 275 276 276 278 279 280 281 282 283 284 285 286 287 288 289 290 290
235 234 234 233 232 231 231 231 230 230 229 228 228 229 231 232 232 232 232 232 232 233 234 235 238 240 242 242 242 241 241 241 242 243 244 245 246 246 247 248 249 250 251 252 253 254 256 257 259 260 261 262 263 264 264 265 265 266 266 267 267 268 269 270 270 271 272 272 273 274 275 277 278 279 280 281 282 283 284 285 286 287 288 288 289 289
238 238 237 236 234 232 232 231 230 230 229 228 228 228 230 232 232 232 231 231 232 233 233 235 237 239 241 243 244 244 243 242 243 243 244 244 244 245 246 247 249 250 251 253 254 255 256 258 259 260 261 262 263 263 264 265 265 266 267 267 268 268 269 270 270 271 272 273 274 275 276 278 279 279 280 281 282 283 284 285 286 287 287 288 288 289
238 238 238 237 236 234 234 232 231 231 229 228 228 228 230 232 233 233 231 229 230 231 232 233 236 238 240 242 243 244 245 244 243 243 243 244 244 245 246 248 249 251 252 253 254 255 256 257 258 259 260 260 261 262 263 264 265 266 266 267 267 268 269 270 270 271 272 273 275 276 277 278 278 279 280 281 282 283 284 285 286 286 287 287 288 289
239 239 239 239 238 237 236 235 233 232 231 229 228 228 230 231 233 234 231 228 229 231 231 232 234 236 238 240 242 244 245 246 244 243 244 245 246 247 248 248 249 250 251 253 254 255 256 256 257 258 259 260 261 262 262 263 264 265 266 266 267 268 269 270 270 271 272 274 275 276 276 277 278 279 280 281 282 283 284 284 285 286 286 287 288 289
238 238 239 240 239 238 238 237 235 234 232 231 230 230 231 231 233 234 232 229 229 231 231 231 232 234 237 239 241 243 245 245 246 246 246 247 248 248 249 249 250 250 251 252 253 254 255 256 257 258 259 260 261 262 262 263 264 265 266 266 267 268 269 270 271 271 272 273 274 275 276 277 278 279 280 281 282 283 283 284 285 285 286 287 288 289
238 238 239 240 240 240 239 239 237 235 234 233 232 232 233 234 234 234 234 232 230 231 232 232 232 233 236 238 240 242 243 244 246 247 248 249 250 250 250 250 251 251 252 252 253 254 255 256 257 258 259 260 261 262 263 264 264 265 266 267 267 268 269 270 271 272 272 273 274 275 276 277 278 279 280 281 281 282 283 284 285 285 286 287 288 289
239 239 240 240 241 241 240 240 238 236 236 236 235 234 235 237 236 234 234 233 232 231 232 233 233 233 235 237 239 241 242 243 244 245 247 249 250 251 251 252 252 252 252 253 254 254 255 256 256 257 258 259 260 261 262 263 264 265 266 267 267 268 269 270 271 271 272 273 274 275 276 277 278 279 280 281 281 282 283 284 285 285 286 287 287 288
238 240 241 242 243 243 243 242 241 239 239 239 238 235 235 237 236 235 234 234 234 234 233 234 235 235 235 236 238 240 241 242 243 244 245 246 248 249 251 252 253 253 254 254 254 255 255 256 256 257 258 259 260 261 262 263 264 264 265 266 267 268 269 269 270 271 272 273 274 275 276 277 278 279 280 281 282 282 283 284 284 285 286 286 287 287
240 242 243 244 244 244 244 243 241 239 239 240 239 237 237 238 238 238 237 236 236 236 235 235 236 237 237 237 238 239 240 242 242 243 244 245 246 247 249 251 253 254 255 255 256 256 256 256 257 257 258 259 260 260 261 262 263 264 265 266 266 267 268 269 270 271 272 273 274 275 276 277 278 279 280 281 281 282 283 283 284 284 285 285 286 287
240 241 242 243 243 244 243 243 242 241 240 241 242 241 241 241 241 241 241 239 238 238 238 238 238 238 238 238 238 239 240 241 242 243 244 245 246 246 248 249 251 252 254 255 256 256 257 257 258 258 259 259 260 261 262 263 263 264 265 266 267 268 269 270 271 272 273 274 275 276 277 277 278 279 279 280 280 281 282 282 283 283 284 285 285 286
239 240 241 242 243 244 244 244 245 244 242 242 242 243 243 243 243 243 243 242 241 240 239 239 239 239 240 240 240 240 241 242 243 244 245 246 246 247 248 248 249 250 252 253 254 255 256 257 258 258 259 260 261 262 262 263 264 265 266 267 268 269 269 270 271 272 273 274 275 275 276 277 277 278 279 279 280 280 281 282 282 283 284 284 285 286
239 240 241 241 242 243 243 243 244 244 244 243 243 244 245 245 245 244 243 243 242 242 241 241 241 241 241 242 243 243 243 243 244 244 245 246 247 248 248 249 250 250 251 252 253 254 255 257 258 258 259 260 261 262 263 264 264 265 266 267 268 269 269 270 271 272 273 273 274 275 276 276 277 278 278 279 280 280 281 282 282 283 284 285 285 286
240 241 242 242 243 243 243 243 243 244 244 243 243 243 244 245 245 245 245 244 243 243 243 243 243 243 243 244 245 246 246 246 246 246 246 247 247 248 249 250 251 251 252 253 253 255 256 257 258 259 260 261 262 263 264 264 265 266 266 267 268 269 270 270 271 272 273 273 274 275 275 276 277 278 278 279 280 280 281 282 283 283 284 285 285 286
243 244 244 244 244 244 244 243 243 242 242 241 240 239 240 241 243 244 246 246 246 245 245 245 245 245 245 246 246 247 248 248 248 248 248 248 249 250 251 251 252 253 254 254 255 256 256 257 258 260 261 262 263 264 264 265 266 266 267 268 268 269 270 271 271 272 273 273 274 275 276 276 277 278 279 279 280 281 281 282 283 283 284 284 285 285
247 246 245 245 244 244 243 241 241 241 241 240 240 240 240 241 243 245 246 247 248 248 248 247 247 247 247 247 247 248 249 250 251 251 251 251 251 252 252 253 254 255 256 256 257 257 258 259 259 260 261 262 263 264 265 265 266 267 267 268 269 270 271 271 272 273 273 274 275 276 276 277 278 278 279 280 280 281 281 282 282 283 283 284 284 285
Height
10714 10723 10732 10737 10738 10740 10742 10745 10749 10753 10756 10762 10772 10779 10782 10787 10793 10796 10798 10802 10807 10813 10818 10821 10820 10820 10827 10831 10833 10838 10842 10844 10848 10850 10850 10852 10855 10858 10859 10860 10861 10863 10866 10869 10870 10870 10870 10870 10871 10873 10873 10873 10873 10873 10874 10874 10874 10873 10873 10873 10873 10872 10872 10872 10871 10871 10870 10869 10868 10867 10866 10865 10864 10863 10862 10861 10860 10859 10858 10857 10855 10854 10852 10851 10849 10847
10710 10721 10727 10727 10728 10732 10734 10736 10741 10746 10749 10754 10763 10772 10777 10783 10788 10789 10792 10797 10801 10807 10811 10813 10815 10817 10822 10826 10830 10835 10838 10840 10843 10845 10846 10848 10852 10855 10856 10857 10858 10859 10863 10865 10865 10865 10866 10867 10868 10870 10870 10870 10870 10870 10871 10871 10870 10870 10870 10870 10870 10869 10869 10869 10868 10868 10867 10866 10865 10864 10863 10862 10861 10860 10859 10858 10856 10855 10854 10853 10851 10850 10848 10846 10844 10842
10707 10716 10717 10717 10721 10725 10727 10730 10736 10740 10743 10750 10758 10766 10774 10780 10782 10783 10787 10792 10795 10801 10803 10806 10810 10812 10815 10821 10827 10832 10834 10837 10840 10842 10844 10846 10849 10851 10851 10853 10854 10857 10860 10860 10861 10862 10862 10864 10865 10866 10866 10866 10867 10867 10867 10867 10867 10867 10867 10867 10866 10865 10866 10866 10865 10865 10864 10863 10862 10861 10860 10858 10857 10856 10855 10854 10853 10851 10850 10849 10847 10845 10844 10842 10840 10838
10701 10707 10707 10708 10712 10715 10720 10724 10729 10734 10739 10747 10755 10761 10770 10774 10775 10778 10782 10785 10788 10793 10796 10800 10805 10806 10809 10817 10824 10827 10830 10833 10837 10839 10841 10843 10844 10845 10847 10849 10851 10852 10854 10855 10856 10857 10859 10860 10861 10861 10862 10863 10863 10863 10863 10863 10863 10863 10864 10863 10862 10862 10862 10862 10861 10861 10860 10859 10858 10857 10856 10855 10854 10853 10852 10851 10849 10847 10846 10845 10843 10842 10840 10839 10837 10835
10691 10695 10696 10697 10701 10707 10713 10719 10724 10730 10736 10745 10751 10756 10762 10764 10768 10772 10773 10777 10781 10785 10789 10793 10798 10803 10806 10814 10819 10821 10824 10828 10832 10835 10837 10839 10838 10840 10844 10845 10846 10847 10849 10851 10851 10853 10855 10856 10857 10858 10859 10859 10858 10858 10859 10859 10859 10859 10859 10859 10858 10858 10858 10858 10858 10857 10856 10855 10854 10853 10852 10851 10850 10849 10848 10847 10845 10843 10842 10840 10839 10837 10836 10834 10833 10831
10680 10686 10687 10688 10694 10702 10709 10716 10721 10727 10732 10738 10744 10750 10752 10754 10758 10763 10764 10769 10774 10780 10784 10785 10793 10802 10803 10809 10815 10816 10819 10823 10827 10831 10833 10834 10834 10837 10840 10840 10841 10843 10845 10846 10847 10850 10851 10851 10853 10854 10854 10854 10854 10854 10855 10856 10855 10855 10854 10854 10854 10854 10854 10854 10854 10853 10852 10851 10850 10849 10848 10847 10845 10845 10844 10843 10841 10839 10838 10836 10834 10833 10831 10830 10828 10827
10672 10678 10679 10682 10690 10698 10706 10714 10719 10723 10726 10732 10738 10740 10741 10743 10748 10753 10756 10761 10767 10775 10777 10777 10790 10799 10797 10804 10811 10812 10816 10818 10822 10827 10828 10829 10831 10833 10834 10834 10836 10839 10840 10842 10843 10845 10847 10847 10848 10849 10850 10850 10850 10851 10852 10851 10850 10850 10850 10850 10850 10850 10850 10850 10850 10849 10848 10847 10846 10845 10844 10842 10841 10841 10840 10839 10837 10835 10833 10832 10830 10829 10828 10826 10825 10823
10667 10672 10673 10678 10685 10693 10703 10710 10712 10715 10718 10725 10729 10728 10731 10734 10738 10743 10747 10753 10761 10766 10767 10772 10785 10793 10795 10803 10808 10808 10813 10815 10818 10824 10824 10824 10827 10828 10828 10829 10831 10833 10835 10837 10839 10841 10842 10843 10843 10844 10845 10846 10846 10847 10848 10846 10846 10846 10846 10846 10845 10845 10845 10845 10845 10845 10844 10843 10842 10841 10839 10838 10837 10836 10836 10834 10833 10831 10829 10827 10826 10825 10823 10822 10820 10818
10659 10662 10665 10669 10676 10687 10697 10700 10700 10704 10709 10715 10716 10715 10721 10725 10729 10734 10738 10746 10752 10754 10762 10772 10779 10788 10797 10801 10801 10805 10810 10812 10816 10819 10819 10819 10821 10822 10823 10824 10826 10827 10830 10833 10834 10836 10837 10838 10838 10839 10841 10841 10842 10843 10842 10841 10842 10842 10842 10842 10841 10841 10840 10840 10840 10839 10839 10838 10837 10836 10835 10834 10833 10832 10831 10830 10829 10827 10825 10823 10821 10820 10819 10816 10815 10813
10651 10654 10656 10660 10670 10683 10689 10688 10690 10697 10704 10706 10703 10706 10712 10717 10723 10726 10730 10739 10742 10748 10764 10772 10775 10785 10795 10794 10794 10803 10808 10809 10810 10811 10812 10812 10814 10817 10818 10820 10822 10824 10826 10829 10829 10830 10831 10833 10834 10834 10835 10836 10836 10838 10838 10838 10838 10838 10838 10838 10837 10837 10836 10836 10835 10834 10833 10832 10831 10830 10829 10828 10828 10827 10826 10824 10823 10822 10820 10818 10816 10814 10813 10811 10809 10807
10645 10649 10654 10662 10674 10682 10683 10683 10686 10693 10700 10699 10696 10702 10708 10713 10717 10719 10725 10730 10732 10749 10767 10770 10770 10779 10789 10790 10790 10799 10805 10802 10801 10802 10805 10807 10808 10812 10814 10816 10819 10820 10822 10823 10824 10825 10826 10827 10828 10829 10830 10830 10832 10833 10833 10833 10833 10834 10834 10834 10833 10832 10832 10831 10830 10829 10828 10827 10826 10825 10824 10823 10822 10821 10820 10818 10816 10815 10813 10812 10810 10808 10806 10804 10803 10801
10643 10648 10657 10666 10673 10677 10678 10679 10682 10688 10696 10694 10693 10699 10704 10708 10712 10714 10719 10721 10729 10753 10766 10764 10763 10769 10784 10791 10786 10792 10799 10796 10795 10798 10799 10801 10804 10806 10809 10811 10813 10815 10817 10817 10818 10820 10821 10821 10822 10823 10824 10825 10827 10827 10828 10828 10828 10828 10828 10828 10828 10827 10827 10827 10826 10825 10823 10822 10821 10820 10819 10818 10817 10815 10814 10812 10810 10808 10807 10806 10804 10802 10800 10798 10796 10794
10642 10648 10654 10660 10665 10669 10672 10674 10676 10683 10690 10689 10689 10694 10698 10702 10705 10709 10715 10718 10731 10752 10759 10757 10755 10760 10781 10790 10780 10783 10791 10790 10791 10792 10793 10795 10798 10801 10802 10804 10806 10809 10810 10811 10812 10813 10814 10815 10815 10817 10819 10820 10822 10822 10823 10823 10823 10822 10822 10822 10822 10821 10822 10822 10821 10820 10818 10817 10816 10815 10814 10813 10811 10810 10808 10806 10804 10803 10801 10800 10798 10796 10794 10792 10789 10787
10635 10639 10646 10652 10657 10661 10664 10667 10670 10676 10680 10680 10682 10685 10688 10693 10698 10705 10712 10717 10729 10743 10748 10747 10744 10753 10776 10783 10775 10776 10780 10784 10786 10786 10787 10789 10791 10794 10796 10797 10799 10802 10803 10804 10805 10806 10808 10808 10809 10811 10813 10815 10816 10817 10817 10818 10817 10817 10817 10816 10816 10815 10816 10816 10814 10814 10812 10811 10810 10809 10808 10807 10806 10804 10803 10801 10799 10797 10795 10794 10792 10790 10787 10785 10783 10780
10624 10628 10636 10642 10646 10650 10652 10655 10657 10661 10664 10667 10668 10669 10674 10683 10691 10698 10703 10708 10719 10727 10733 10734 10736 10752 10770 10774 10772 10770 10770 10776 10780 10780 10781 10781 10782 10786 10789 10791 10792 10793 10796 10798 10799 10800 10801 10802 10804 10806 10807 10809 10811 10811 10812 10812 10812 10812 10811 10811 10810 10809 10810 10809 10808 10807 10806 10805 10805 10804 10802 10801 10800 10798 10797 10795 10793 10791 10789 10787 10785 10783 10781 10779 10777 10774
10618 10623 10629 10631 10635 10638 10640 10642 10644 10648 10654 10657 10657 10660 10670 10679 10684 10686 10688 10696 10706 10711 10718 10727 10735 10750 10760 10762 10766 10765 10763 10768 10771 10773 10775 10774 10774 10778 10782 10784 10784 10785 10788 10790 10792 10793 10795 10797 10799 10801 10802 10803 10805 10805 10806 10806 10806 10806 10806 10805 10804 10803 10804 10803 10802 10801 10800 10799 10798 10797 10796 10794 10793 10792 10790 10788 10787 10785 10783 10781 10779 10777 10775 10772 10770 10767
10610 10616 10620 10623 10628 10631 10633 10635 10638 10643 10648 10649 10651 10659 10670 10672 10669 10673 10679 10687 10694 10702 10714 10725 10734 10744 10748 10752 10758 10758 10757 10759 10761 10765 10768 10767 10768 10771 10774 10775 10776 10778 10780 10782 10785 10786 10789 10792 10794 10795 10796 10797 10798 10799 10799 10799 10799 10799 10799 10798 10798 10797 10797 10796 10796 10795 10794 10793 10791 10790 10789 10787 10787 10785 10783 10781 10780 10778 10776 10774 10772 10770 10768 10765 10762 10760
10598 10603 10607 10611 10615 10618 10621 10623 10627 10634 10639 10642 10649 10658 10661 10655 10655 10665 10674 10679 10686 10698 10712 10723 10731 10736 10739 10745 10752 10754 10753 10752 10752 10756 10759 10762 10763 10764 10766 10766 10769 10772 10773 10776 10778 10780 10783 10785 10787 10789 10790 10791 10792 10792 10792 10792 10792 10792 10791 10791 10791 10790 10790 10789 10789 10788 10787 10786 10784 10783 10782 10780 10779 10778 10776 10774 10773 10771 10769 10767 10765 10763 10760 10757 10755 10752
10587 10591 10596 10600 10604 10607 10609 10611 10618 10627 10633 10639 10645 10649 10648 10646 10653 10661 10667 10674 10681 10693 10708 10717 10723 10729 10734 10741 10746 10748 10748 10747 10746 10748 10751 10756 10757 10757 10757 10758 10762 10765 10767 10769 10771 10774 10777 10779 10781 10783 10784 10785 10785 10785 10786 10786 10785 10785 10784 10784 10784 10783 10783 10782 10782 10781 10780 10778 10777 10776 10775 10773 10772 10771 10769 10767 10765 10764 10762 10759 10757 10754 10752 10749 10746 10743
10580 10584 10590 10595 10598 10601 10604 10609 10619 10627 10630 10633 10637 10640 10641 10645 10651 10655 10660 10668 10675 10685 10699 10708 10715 10724 10731 10734 10737 10741 10743 10740 10740 10742 10743 10746 10748 10750 10751 10751 10756 10759 10761 10763 10765 10767 10770 10772 10774 10776 10776 10777 10777 10778 10779 10779 10779 10778 10777 10777 10777 10776 10776 10775 10774 10773 10772 10771 10770 10768 10767 10766 10764 10763 10761 10760 10758 10756 10753 10751 10748 10746 10743 10740 10737 10735
10570 10576 10584 10589 10592 10598 10603 10609 10617 10620 10620 10625 10630 10634 10637 10640 10644 10646 10651 10660 10667 10677 10690 10699 10708 10718 10724 10726 10728 10733 10736 10735 10734 10735 10735 10736 10739 10742 10745 10746 10749 10752 10754 10756 10758 10760 10762 10764 10766 10767 10768 10769 10770 10770 10771 10772 10772 10772 10771 10770 10770 10769 10768 10767 10766 10765 10764 10763 10762 10760 10759 10758 10756 10755 10753 10751 10749 10747 10744 10742 10739 10737 10734 10731 10729 10726
10561 10567 10573 10579 10585 10593 10597 10600 10604 10606 10611 10617 10621 10626 10630 10632 10633 10634 10642 10653 10660 10667 10679 10690 10700 10710 10716 10718 10721 10725 10730 10731 10727 10726 10726 10726 10729 10733 10737 10740 10743 10745 10746 10748 10751 10754 10756 10757 10759 10760 10761 10763 10763 10764 10764 10764 10765 10764 10764 10763 10763 10762 10761 10759 10758 10757 10755 10754 10753 10752 10751 10749 10748 10746 10744 10742 10740 10738 10735 10733 10730 10727 10725 10722 10720 10717
10548 10553 10560 10568 10576 10581 10585 10588 10593 10597 10603 10607 10612 10620 10623 10623 10625 10628 10637 10648 10650 10655 10667 10677 10689 10704 10710 10711 10714 10717 10721 10723 10719 10717 10717 10717 10719 10724 10728 10732 10736 10737 10738 10741 10744 10748 10750 10752 10753 10753 10754 10755 10756 10756 10756 10757 10757 10757 10756 10756 10755 10755 10753 10752 10750 10748 10747 10746 10745 10744 10743 10742 10740 10738 10736 10734 10731 10729 10726 10724 10721 10718 10716 10713 10711 10708
10535 10540 10548 10556 10563 10567 10571 10578 10583 10588 10595 10602 10610 10616 10616 10617 10621 10621 10629 10637 10637 10646 10659 10664 10681 10702 10704 10702 10707 10708 10710 10715 10713 10710 10710 10709 10711 10714 10718 10723 10728 10730 10732 10735 10738 10741 10743 10745 10746 10746 10747 10747 10748 10749 10748 10748 10749 10749 10749 10748 10748 10747 10745 10744 10742 10741 10740 10739 10738 10737 10736 10734 10732 10730 10728 10725 10723 10720 10717 10715 10712 10709 10707 10705 10702 10700
10522 10527 10535 10543 10549 10554 10561 10570 10578 10586 10595 10602 10607 10609 10608 10611 10611 10611 10619 10624 10627 10643 10653 10656 10675 10696 10695 10694 10700 10699 10702 10708 10706 10702 10702 10701 10702 10705 10710 10715 10719 10722 10726 10729 10731 10734 10735 10737 10737 10738 10739 10740 10741 10741 10741 10741 10741 10741 10741 10740 10740 10738 10737 10735 10734 10733 10732 10731 10731 10730 10728 10727 10724 10722 10719 10716 10714 10711 10709 10706 10704 10701 10699 10696 10694 10691
10505 10512 10521 10527 10535 10546 10556 10566 10576 10582 10585 10587 10591 10594 10596 10599 10600 10604 10610 10613 10623 10641 10646 10651 10670 10682 10683 10688 10691 10690 10696 10700 10695 10691 10691 10691 10693 10697 10702 10706 10711 10714 10718 10721 10724 10726 10727 10728 10729 10730 10731 10732 10733 10733 10733 10733 10733 10733 10733 10732 10731 10729 10728 10727 10726 10726 10725 10725 10724 10722 10720 10718 10715 10713 10711 10708 10705 10703 10700 10697 10695 10692 10690 10687 10685 10682
10493 10501 10510 10519 10530 10542 10550 10557 10563 10564 10565 10571 10577 10580 10582 10585 10588 10593 10596 10606 10622 10631 10635 10648 10662 10665 10672 10680 10681 10682 10687 10687 10682 10678 10678 10681 10685 10690 10695 10699 10702 10706 10709 10713 10715 10717 10718 10720 10720 10722 10723 10724 10725 10725 10725 10725 10724 10724 10723 10722 10721 10720 10720 10719 10719 10719 10718 10717 10716 10714 10712 10709 10707 10704 10702 10699 10696 10693 10691 10688 10685 10683 10681 10678 10676 10673
10484 10495 10508 10518 10527 10535 10541 10546 10550 10553 10558 10565 10569 10572 10575 10578 10579 10581 10588 10602 10611 10612 10624 10642 10647 10651 10664 10669 10668 10671 10672 10670 10670 10668 10667 10672 10678 10683 10688 10691 10693 10696 10700 10703 10706 10708 10710 10711 10712 10714 10715 10716 10716 10716 10716 10715 10715 10714 10713 10713 10713 10712 10712 10712 10712 10712 10711 10709 10707 10705 10703 10700 10698 10695 10692 10690 10687 10684 10681 10678 10676 10674 10671 10669 10666 10663
10480 10492 10504 10512 10518 10524 10531 10537 10542 10545 10549 10554 10559 10564 10569 10572 10575 10581 10591 10600 10600 10604 10621 10630 10630 10642 10655 10652 10651 10658 10657 10656 10660 10661 10661 10665 10670 10675 10679 10681 10684 10688 10691 10694 10697 10699 10701 10702 10704 10705 10705 10706 10707 10706 10705 10705 10704 10704 10704 10705 10705 10705 10705 10705 10705 10704 10703 10701 10698 10696 10694 10691 10688 10686 10683 10680 10677 10674 10671 10669 10666 10664 10662 10659 10656 10652
10477 10487 10495 10501 10507 10513 10520 10528 10534 10536 10539 10544 10551 10557 10561 10566 10572 10581 10591 10596 10595 10603 10615 10616 10622 10640 10645 10638 10642 10648 10646 10647 10653 10656 10657 10658 10661 10664 10667 10671 10676 10680 10683 10686 10688 10690 10692 10693 10694 10695 10696 10696 10695 10695 10695 10694 10694 10695 10696 10696 10697 10697 10697 10697 10696 10695 10693 10691 10688 10686 10684 10681 10678 10676 10672 10669 10667 10664 10662 10659 10657 10654 10651 10648 10645 10642
10472 10481 10487 10492 10497 10503 10511 10520 10525 10526 10529 10534 10541 10549 10556 10563 10571 10579 10586 10586 10587 10598 10606 10604 10614 10632 10633 10628 10633 10638 10637 10643 10648 10649 10649 10651 10651 10652 10654 10660 10667 10672 10675 10678 10679 10681 10683 10683 10684 10684 10685 10685 10684 10684 10685 10685 10686 10687 10688 10688 10689 10689 10689 10688 10687 10685 10682 10680 10678 10675 10673 10670 10667 10665 10662 10659 10656 10654 10651 10649 10646 10643 10640 10637 10634 10631
10466 10473 10478 10483 10488 10497 10504 10509 10513 10515 10516 10521 10534 10547 10556 10561 10566 10572 10575 10576 10581 10591 10592 10592 10606 10621 10618 10612 10619 10627 10631 10636 10639 10640 10641 10642 10641 10641 10643 10650 10658 10664 10667 10669 10670 10672 10673 10672 10673 10673 10673 10674 10674 10675 10676 10677 10679 10679 10679 10679 10680 10679 10679 10678 10676 10674 10672 10670 10668 10665 10662 10659 10656 10654 10651 10648 10646 10643 10641 10638 10635 10632 10629 10626 10623 10620
10454 10462 10468 10472 10477 10485 10490 10493 10497 10498 10499 10513 10534 10545 10547 10549 10553 10558 10564 10570 10575 10577 10579 10586 10599 10604 10599 10597 10607 10617 10621 10624 10628 10630 10629 10628 10627 10630 10637 10643 10649 10653 10655 10657 10659 10661 10661 10661 10662 10663 10664 10665 10666 10667 10668 10670 10671 10670 10670 10670 10670 10670 10669 10668 10666 10664 10662 10659 10657 10654 10651 10648 10645 10642 10640 10637 10635 10632 10630 10627 10624 10621 10618 10615 10612 10609
10438 10445 10452 10457 10461 10467 10473 10476 10476 10476 10488 10513 10531 10531 10530 10535 10541 10549 10557 10561 10562 10564 10571 10580 10585 10584 10584 10591 10599 10606 10608 10611 10615 10616 10615 10615 10617 10622 10629 10634 10638 10642 10643 10645 10649 10650 10650 10650 10651 10653 10656 10657 10658 10660 10660 10661 10660 10659 10659 10660 10660 10659 10659 10657 10656 10654 10651 10649 10646 10643 10640 10637 10634 10631 10628 10626 10623 10621 10618 10615 10612 10609 10607 10604 10601 10598
10426 10431 10438 10444 10449 10455 10461 10463 10462 10472 10494 10514 10521 10518 10520 10527 10535 10543 10548 10550 10553 10558 10564 10571 10574 10573 10575 10581 10588 10593 10596 10599 10603 10604 10605 10608 10611 10614 10620 10626 10630 10632 10633 10635 10637 10637 10637 10639 10641 10645 10647 10649 10650 10651 10651 10650 10650 10649 10650 10650 10650 10649 10648 10647 10645 10643 10641 10637 10634 10631 10628 10625 10622 10620 10617 10615 10612 10610 10607 10604 10601 10598 10595 10593 10590 10586
10423 10428 10434 10441 10446 10452 10459 10462 10468 10483 10499 10509 10515 10517 10518 10523 10531 10535 10538 10542 10546 10549 10554 10560 10563 10561 10562 10568 10575 10581 10584 10587 10592 10596 10598 10600 10603 10608 10615 10621 10622 10622 10622 10622 10623 10625 10627 10630 10633 10635 10637 10639 10641 10641 10639 10639 10639 10639 10640 10639 10639 10638 10637 10636 10635 10632 10629 10625 10621 10618 10616 10613 10611 10609 10607 10604 10601 10598 10595 10592 10590 10587 10584 10581 10577 10574
10424 10429 10433 10438 10443 10450 10456 10462 10470 10479 10490 10501 10513 10517 10514 10516 10521 10522 10526 10535 10538 10539 10546 10553 10552 10552 10555 10560 10563 10568 10573 10577 10584 10593 10596 10594 10592 10597 10605 10611 10609 10607 10608 10611 10614 10618 10621 10622 10624 10625 10626 10628 10629 10628 10626 10626 10627 10628 10628 10627 10627 10626 10625 10624 10623 10619 10615 10612 10609 10606 10605 10603 10601 10599 10596 10593 10590 10586 10583 10581 10578 10575 10571 10568 10565 10561
10423 10427 10431 10433 10439 10444 10449 10455 10461 10469 10483 10499 10509 10511 10507 10504 10504 10506 10516 10531 10535 10533 10538 10542 10542 10544 10547 10548 10549 10554 10561 10569 10582 10593 10589 10578 10575 10582 10591 10596 10595 10596 10600 10605 10609 10611 10612 10612 10613 10613 10614 10615 10614 10613 10613 10613 10615 10616 10615 10615 10613 10612 10612 10612 10609 10605 10602 10599 10598 10596 10595 10593 10590 10587 10584 10581 10578 10574 10571 10569 10565 10562 10558 10555 10551 10548
10416 10420 10423 10424 10431 10440 10445 10451 10457 10466 10482 10494 10499 10500 10497 10491 10488 10490 10506 10528 10531 10520 10521 10529 10531 10533 10535 10535 10536 10539 10548 10564 10579 10581 10565 10552 10558 10572 10580 10583 10586 10590 10593 10595 10597 10599 10599 10599 10600 10600 10600 10600 10600 10600 10600 10601 10602 10603 10602 10601 10600 10599 10600 10598 10594 10592 10590 10589 10587 10585 10583 10581 10577 10574 10571 10568 10565 10562 10559 10556 10552 10548 10544 10541 10538 10534
10411 10414 10415 10418 10428 10439 10443 10447 10455 10465 10477 10484 10487 10489 10486 10480 10474 10475 10498 10526 10521 10501 10504 10516 10517 10519 10522 10523 10526 10533 10544 10556 10563 10557 10543 10540 10553 10568 10573 10575 10578 10580 10581 10582 10583 10585 10585 10585 10586 10586 10586 10587 10587 10588 10588 10588 10589 10590 10589 10588 10587 10587 10585 10582 10580 10580 10579 10578 10575 10572 10570 10568 10564 10562 10559 10556 10553 10550 10547 10543 10539 10535 10531 10528 10525 10521
10403 10406 10409 10415 10425 10432 10435 10440 10449 10460 10468 10472 10476 10477 10472 10466 10464 10470 10494 10512 10500 10484 10490 10498 10501 10509 10515 10515 10521 10531 10537 10541 10542 10540 10537 10540 10549 10557 10561 10563 10565 10566 10567 10569 10571 10572 10572 10573 10573 10573 10574 10574 10574 10575 10575 10575 10576 10577 10576 10576 10575 10573 10570 10569 10569 10569 10567 10564 10562 10560 10557 10554 10551 10549 10546 10543 10540 10537 10534 10530 10526 10522 10519 10515 10512 10508
10398 10401 10404 10410 10418 10424 10428 10432 10439 10449 10459 10461 10464 10465 10461 10459 10464 10472 10480 10482 10475 10473 10478 10481 10490 10504 10509 10509 10517 10524 10525 10528 10532 10531 10531 10533 10538 10542 10546 10549 10551 10553 10555 10557 10558 10560 10561 10561 10561 10561 10562 10561 10562 10562 10562 10562 10563 10563 10563 10563 10561 10558 10557 10557 10557 10555 10553 10551 10549 10547 10544 10541 10538 10536 10533 10530 10527 10524 10520 10517 10513 10510 10506 10502 10499 10495
10393 10394 10398 10405 10411 10415 10418 10421 10429 10445 10453 10450 10451 10458 10458 10455 10455 10455 10453 10455 10460 10467 10471 10474 10485 10497 10502 10504 10509 10512 10515 10518 10521 10522 10522 10524 10526 10528 10531 10535 10537 10539 10542 10544 10546 10547 10548 10549 10549 10549 10549 10549 10549 10549 10549 10549 10549 10549 10549 10548 10546 10545 10544 10544 10542 10541 10540 10538 10536 10533 10531 10528 10525 10523 10520 10517 10514 10510 10507 10504 10500 10497 10493 10489 10485 10481
10385 10388 10395 10402 10406 10408 10412 10418 10429 10441 10442 10435 10436 10445 10445 10438 10433 10434 10438 10446 10453 10460 10466 10472 10478 10484 10491 10496 10498 10500 10504 10505 10507 10511 10513 10513 10515 10517 10519 10522 10524 10526 10528 10531 10532 10534 10535 10535 10536 10536 10536 10536 10536 10536 10536 10536 10536 10535 10535 10534 10532 10532 10531 10530 10529 10528 10526 10525 10522 10520 10517 10515 10512 10510 10507 10503 10500 10497 10494 10490 10486 10483 10479 10475 10472 10467
10383 10388 10393 10397 10398 10400 10405 10412 10418 10425 10425 10422 10425 10430 10430 10427 10427 10429 10435 10441 10446 10452 10460 10465 10467 10471 10479 10484 10487 10489 10490 10492 10495 10499 10501 10504 10507 10508 10510 10512 10513 10514 10515 10516 10518 10519 10520 10521 10522 10522 10523 10523 10522 10523 10523 10523 10523 10522 10521 10520 10519 10519 10518 10516 10516 10515 10513 10511 10509 10507 10504 10502 10499 10496 10493 10489 10486 10483 10480 10476 10473 10469 10465 10461 10457 10453
10376 10379 10382 10386 10386 10388 10395 10402 10408 10413 10416 10417 10418 10420 10422 10424 10425 10427 10430 10435 10440 10446 10451 10456 10460 10462 10464 10468 10473 10476 10478 10481 10485 10488 10491 10495 10497 10498 10500 10502 10502 10503 10503 10503 10504 10504 10505 10506 10507 10508 10508 10508 10508 10509 10509 10509 10510 10509 10507 10507 10506 10505 10504 10503 10502 10501 10500 10498 10496 10493 10491 10488 10485 10482 10479 10476 10472 10469 10466 10462 10459 10455 10451 10447 10443 10439
10368 10370 10372 10375 10376 10381 10390 10398 10402 10406 10409 10411 10411 10411 10412 10414 10416 10418 10422 10426 10430 10436 10441 10445 10448 10450 10452 10455 10459 10464 10469 10473 10475 10478 10481 10483 10485 10487 10489 10490 10490 10491 10491 10491 10491 10491 10491 10492 10493 10493 10494 10495 10495 10496 10496 10496 10496 10495 10494 10493 10492 10491 10491 10491 10489 10488 10486 10484 10482 10480 10477 10474 10471 10468 10465 10462 10458 10455 10451 10448 10444 10441 10437 10433 10429 10424
10361 10361 10363 10366 10370 10376 10385 10390 10392 10395 10399 10403 10404 10404 10404 10405 10406 10407 10409 10414 10419 10424 10428 10432 10436 10440 10444 10447 10449 10454 10458 10462 10464 10466 10469 10470 10472 10474 10475 10476 10477 10478 10479 10479 10479 10479 10480 10480 10480 10481 10482 10482 10483 10483 10484 10484 10483 10482 10481 10480 10479 10479 10479 10478 10476 10475 10473 10471 10469 10466 10463 10460 10458 10454 10451 10447 10444 10440 10437 10433 10430 10426 10423 10418 10414 10410
10353 10354 10357 10361 10364 10370 10378 10383 10384 10386 10390 10393 10395 10395 10394 10392 10392 10393 10397 10402 10408 10412 10417 10423 10428 10433 10437 10439 10441 10443 10445 10448 10451 10454 10455 10457 10459 10460 10461 10462 10464 10465 10466 10468 10468 10469 10469 10469 10469 10470 10470 10470 10470 10471 10471 10470 10470 10469 10468 10467 10466 10466 10465 10464 10463 10462 10460 10458 10455 10452 10450 10447 10443 10440 10436 10433 10429 10426 10422 10419 10415 10412 10408 10403 10399 10395
10348 10351 10354 10355 10358 10366 10375 10377 10375 10374 10374 10376 10378 10378 10377 10377 10378 10382 10387 10393 10399 10405 10411 10417 10422 10425 10427 10429 10430 10431 10433 10435 10438 10441 10443 10445 10446 10447 10449 10450 10451 10453 10454 10455 10456 10458 10458 10458 10458 10458 10458 10458 10458 10458 10457 10457 10455 10455 10454 10453 10453 10453 10452 10450 10449 10448 10445 10443 10441 10438 10435 10432 10429 10425 10421 10418 10415 10411 10408 10404 10401 10397 10393 10388 10384 10380
10342 10345 10346 10347 10353 10360 10363 10361 10359 10358 10360 10362 10363 10365 10368 10371 10373 10377 10382 10387 10393 10399 10404 10407 10410 10412 10415 10417 10419 10421 10423 10424 10426 10428 10430 10432 10434 10436 10437 10438 10439 10441 10441 10442 10444 10444 10445 10445 10446 10446 10446 10446 10446 10444 10443 10442 10441 10440 10440 10440 10439 10439 10438 10436 10434 10433 10430 10428 10425 10423 10420 10417 10413 10410 10406 10403 10400 10397 10393 10390 10385 10381 10377 10373 10369 10365